Flag for USA

Past Weather in Yellowstone National Park, Wyoming, USA — May 2018

Now
51 °F

Cool.


Feels Like: 51 °F
Forecast: 67 / 38 °F
Wind: 3 mph from North

Location: Yellowstone Lake

Current Time: Jul 7, 2020 at 11:30:14 pm

Latest Report: Jul 7, 2020 at 10:56 pm


Visibility: N/A

Pressure: 29.88 "Hg

Humidity: 39%

Dew Point: 27 °F

Location of Yellowstone National ParkLocation

May 2018 Weather in Yellowstone National Park — Graph

°F

High & Low Weather Summary for May 2018

 TemperatureHumidityPressure
High66 °F (May 25, 4:56 pm)100% (May 1, 10:56 pm)30.39 "Hg (May 1, 10:56 pm)
Low19 °F (May 3, 5:56 am)26% (May 26, 1:56 pm)29.73 "Hg (May 31, 7:56 pm)
Average40 °F75%30.05 "Hg
* Reported May 1 12:56 am — May 31 11:56 pm, Yellowstone National Park. Weather by CustomWeather, © 2020

Note: Actual official high and low records may vary slightly from our data, if they occured in-between our weather recording intervals... More about our weather records

Yellowstone National Park Weather History for May 1, 2018

Scroll right to see more
 ConditionsComfort  
Time TempWeatherWind HumidityBarometerVisibility
12:56 am
Tue, May 1
28 °FChilly.No wind96%29.83 "HgN/A
1:56 am27 °FChilly.No wind92%29.82 "HgN/A
2:56 am25 °FChilly.No wind92%29.85 "HgN/A
3:56 am26 °FChilly.No wind92%29.83 "HgN/A
4:56 am26 °FChilly.No wind92%29.81 "HgN/A
5:56 am26 °FChilly.No wind92%29.81 "HgN/A
6:56 am25 °FChilly.No wind96%29.85 "HgN/A
7:56 am27 °FChilly.No wind92%29.86 "HgN/A
8:56 am28 °FChilly.No wind93%29.87 "HgN/A
9:56 am28 °FChilly.No wind93%29.87 "HgN/A
10:56 am30 °FChilly.3 mph92%29.87 "HgN/A
11:56 am32 °FChilly.3 mph88%29.86 "HgN/A
12:56 pm32 °FChilly.7 mph92%29.88 "HgN/A
1:56 pm33 °FChilly.No wind88%29.88 "HgN/A
2:56 pm33 °FChilly.No wind92%29.90 "HgN/A
3:56 pm31 °FChilly.No wind96%29.90 "HgN/A
4:56 pm32 °FChilly.No wind96%29.91 "HgN/A
5:56 pm34 °FChilly.No wind88%29.91 "HgN/A
6:56 pm32 °FChilly.No wind92%29.93 "HgN/A
7:56 pm31 °FChilly.No wind92%29.97 "HgN/A
8:56 pm31 °FChilly.No wind92%29.98 "HgN/A
9:56 pm30 °FChilly.No wind96%30.01 "HgN/A
10:56 pm30 °FChilly.No wind100%30.01 "HgN/A
11:56 pm29 °FChilly.No wind96%30.01 "HgN/A
Weather by CustomWeather, © 2020

See weather overview